#timestamp,LO_Frequency,Hit,StdDev 
1507215615.6,286047000.4,N
1507215635.4,286047000.3,N
1507215655.3,286047002.6,N
1507215675.1,286047000.3,N
1507215695.9,286047000.3,N
1507215715.7,286046998.7,N
1507215735.5,286047000.2,N
1507215755.4,286046999.8,N
1507215775.2,286046999.7,N
1507215795.1,286046999.8,N
1507215796.0,286046999.8,N
1507215815.8,286046998.5,N
1507215835.6,286046996.9,N
1507215855.5,286046997.4,N
1507215875.3,286046996.5,N
1507215895.1,286046997.9,N
1507215915.9,286046997.8,N
1507215935.7,286046995.3,Y
1507215955.6,286046997.6,P
1507215975.4,286046997.9,N
1507215995.2,286046997.4,P
1507216015.1,286046997.3,Y
1507216016.0,286046997.3,P
1507216035.8,286046998.3,P
1507216055.7,286047000.5,N
1507216075.5,286046998.1,N
1507216095.3,286047001.2,N
1507216115.2,286046998.4,N
1507216135.0,286047000.8,N
1507216135.9,286047000.8,N
1507216155.8,286046998.6,N
1507216175.6,286047000.1,N
1507216195.4,286047001.8,N
1507216215.3,286047001.8,N
1507216235.1,286047001.3,N
1507216255.8,286047001.5,N
1507216275.7,286047001.7,N
1507216295.5,286047003.9,N
1507216315.4,286047002.1,N
1507216335.2,286047001.9,N
1507216355.0,286047000.1,N
1507216355.9,286047000.1,N
1507216375.8,286046999.9,N
1507216395.6,286046998.3,N
1507216415.5,286047000.5,N
1507216435.3,286047001.2,N
1507216455.1,286047000.5,N
1507216475.9,286047000.2,N
1507216495.7,286047000.1,N
1507216515.5,286047001.5,N
1507216535.4,286047001.7,N
1507216555.2,286047003.9,N
1507216575.1,286047001.6,N
1507216576.0,286047001.6,N
1507216595.8,286047001.9,N
1507216615.6,286047001.8,N
1507216635.5,286047004.0,Y
1507216655.3,286047003.9,P
1507216675.1,286047004.0,N
1507216695.9,286047002.8,N
1507216715.7,286047001.8,N
1507216735.6,286047002.0,N
1507216755.4,286047001.4,N
1507216775.2,286047002.0,N
1507216795.1,286047001.4,N
1507216796.0,286047001.4,N
1507216815.8,286047003.8,Y
1507216835.6,286046999.7,P
1507216855.5,286047000.9,N
1507216875.3,286046998.4,N
1507216895.2,286047000.5,N
1507216915.9,286047000.0,N
1507216935.7,286047000.6,N
1507216955.6,286047000.5,N
1507216975.4,286047002.4,N
1507216995.3,286047000.7,N
1507217015.1,286047001.0,N
1507217016.0,286047001.0,N
1507217035.8,286047002.7,N
1507217055.7,286047002.8,N
1507217075.5,286047001.6,N
1507217095.3,286047001.8,N
1507217115.2,286047003.9,Y
1507217135.0,286047001.6,P
1507217135.9,286047001.6,P
1507217155.8,286046999.9,N
1507217175.6,286047000.4,N
1507217195.4,286047001.1,N
1507217215.3,286047000.8,N
1507217235.1,286046998.1,Y
1507217255.9,286046999.2,P
1507217275.7,286046996.7,P
1507217295.5,286046997.3,N
1507217315.4,286046997.0,N
1507217335.2,286046997.1,N
1507217355.0,286046999.3,N
1507217355.9,286046999.3,N
1507217375.8,286046998.3,N
1507217395.6,286046999.1,N
1507217415.5,286046998.9,N
1507217435.3,286046996.9,N
1507217455.1,286046997.4,N
1507217475.9,286046997.2,N
1507217495.7,286046998.9,N
1507217515.6,286046998.2,N
1507217535.4,286046998.9,N
1507217555.2,286046998.3,N
1507217575.1,286046996.7,Y
1507217576.0,286046996.7,P
1507217595.8,286046998.3,N
1507217615.7,286046999.4,N
1507217635.5,286046998.7,N
1507217655.3,286046998.4,N
1507217675.2,286046998.3,N
1507217695.9,286046998.2,N
1507217715.7,286047000.9,N
1507217735.6,286047000.0,N
1507217755.4,286047002.3,N
1507217775.3,286047002.8,N
1507217795.1,286047001.9,N
1507217796.0,286047001.9,N
1507217815.8,286047004.3,N
1507217835.7,286047002.6,N
1507217855.5,286047000.4,N
1507217875.4,286047000.8,N
1507217895.2,286047000.6,N
1507217915.0,286047000.7,N
1507217915.9,286047000.7,N
1507217935.8,286047000.0,N
1507217955.6,286047002.7,N
1507217975.4,286046998.5,N
1507217995.3,286047001.1,N
1507218015.1,286046999.0,N
1507218035.9,286046998.4,N
1507218055.7,286047000.7,N
1507218075.5,286046998.4,N
1507218095.4,286046998.8,N
1507218115.2,286047000.6,N
1507218135.0,286046999.8,N
1507218135.9,286046999.8,N
1507218155.8,286046999.9,N
1507218175.6,286047000.0,N
1507218195.5,286046998.3,N
1507218215.3,286047000.9,N
1507218235.1,286047000.9,N
1507218255.9,286047000.0,N
1507218275.7,286047000.3,N
1507218295.6,286047000.4,N
1507218315.4,286047000.5,N
1507218335.2,286047000.7,N
1507218355.1,286047000.5,N
1507218356.0,286047000.5,N
1507218375.8,286047002.7,N
1507218395.6,286047002.3,N
1507218415.5,286047002.5,N
1507218435.3,286047002.1,N
1507218455.2,286047002.7,N
1507218475.9,286047002.2,N
1507218495.7,286047003.7,N
1507218515.6,286047002.6,N
1507218535.4,286047004.4,Y
1507218555.3,286047002.4,P
1507218575.1,286046999.8,N
1507218576.0,286046999.8,N
1507218595.8,286047000.3,N
1507218615.7,286046998.2,N
1507218635.5,286046998.3,N
1507218655.3,286046998.2,N
1507218675.2,286047000.8,N
1507218695.0,286046998.2,N
1507218695.9,286046998.2,N
1507218715.8,286046998.1,N
1507218735.6,286046998.5,N
1507218755.4,286046998.8,N
1507218775.3,286047000.7,N
1507218795.1,286047000.2,N
1507218815.8,286047002.2,N
1507218835.7,286047002.3,N
1507218855.5,286047002.2,N
1507218875.4,286047002.7,N
1507218895.2,286047002.3,N
1507218915.0,286047001.4,N
1507218915.9,286047001.4,N
1507218935.8,286047001.7,N
1507218955.6,286047001.4,N
1507218975.4,286047004.4,N
1507218995.3,286047002.6,N
1507219015.1,286047001.4,N
1507219035.9,286047003.1,N
1507219055.7,286047003.4,N
1507219075.5,286047005.6,Y
1507219095.4,286047001.5,P
1507219115.2,286047002.4,P
1507219135.0,286047002.1,P
1507219135.9,286047002.1,Y
1507219155.8,286047000.3,P
1507219175.6,286046998.2,N
1507219195.5,286046998.8,N
